Time,TemperatureF,DewpointF,PressureIn,WindDirection,WindDirectionDegrees,WindSpeedMPH,WindSpeedGustMPH,Humidity,HourlyPrecipIn,Conditions,Clouds,dailyrainin,SolarRadiationWatts/m^2,SoftwareType,DateUTC
2013-03-25 00:00:00,30.3,29.5,29.61,NE,44,0.0,0.0,97,0.00,,CLR,0.00,0.00,VWS V14.01,2013-03-25 04:00:00,
2013-03-25 00:01:00,30.3,29.5,29.61,NE,44,0.0,0.0,97,0.00,,CLR,0.00,0.00,VWS V14.01,2013-03-25 04:01:00,
2013-03-25 00:06:00,30.2,29.5,29.61,NE,44,0.0,0.0,97,0.00,,CLR,0.00,0.00,VWS V14.01,2013-03-25 04:06:00,
2013-03-25 00:11:00,30.2,29.5,29.61,NE,44,0.0,0.0,97,0.00,,CLR,0.00,0.00,VWS V14.01,2013-03-25 04:11:00,
2013-03-25 00:16:00,30.2,29.5,29.60,NE,44,0.0,0.0,97,0.00,,CLR,0.00,0.00,VWS V14.01,2013-03-25 04:16:00,
2013-03-25 00:21:00,30.2,29.5,29.60,NE,44,0.0,0.0,97,0.00,,CLR,0.00,0.00,VWS V14.01,2013-03-25 04:21:00,
2013-03-25 00:26:00,30.2,29.5,29.60,NE,47,0.0,0.0,97,0.00,,CLR,0.00,0.00,VWS V14.01,2013-03-25 04:26:00,
2013-03-25 00:31:00,30.2,29.5,29.59,NE,54,0.0,0.0,97,0.00,,CLR,0.00,0.00,VWS V14.01,2013-03-25 04:31:00,
2013-03-25 00:37:00,30.2,29.5,29.59,ENE,61,0.0,0.0,97,0.00,,CLR,0.00,0.00,VWS V14.01,2013-03-25 04:37:00,
2013-03-25 00:42:00,30.2,29.5,29.59,ENE,59,0.0,0.0,97,0.00,,CLR,0.00,0.00,VWS V14.01,2013-03-25 04:42:00,
2013-03-25 00:47:00,30.2,29.5,29.59,NE,55,0.0,0.0,97,0.00,,CLR,0.00,0.00,VWS V14.01,2013-03-25 04:47:00,
2013-03-25 00:52:00,30.2,29.5,29.59,ENE,62,0.0,0.0,97,0.00,,CLR,0.00,0.00,VWS V14.01,2013-03-25 04:52:00,
2013-03-25 00:57:00,30.2,29.5,29.59,NE,49,0.0,0.0,97,0.00,,CLR,0.00,0.00,VWS V14.01,2013-03-25 04:57:00,
2013-03-25 01:02:00,30.2,29.5,29.58,ENE,69,0.0,0.0,97,0.00,,CLR,0.00,0.00,VWS V14.01,2013-03-25 05:02:00,
2013-03-25 01:07:00,30.2,29.5,29.58,NE,37,0.0,0.0,97,0.00,,CLR,0.00,0.00,VWS V14.01,2013-03-25 05:07:00,
2013-03-25 01:12:00,30.2,29.5,29.58,ENE,61,0.0,0.0,97,0.00,,CLR,0.00,0.00,VWS V14.01,2013-03-25 05:12:00,
2013-03-25 01:17:00,30.0,29.2,29.58,NE,41,0.0,0.0,97,0.00,,CLR,0.00,0.00,VWS V14.01,2013-03-25 05:17:00,
2013-03-25 01:23:00,30.2,29.5,29.58,NE,41,0.0,0.0,97,0.00,,CLR,0.00,0.00,VWS V14.01,2013-03-25 05:23:00,
2013-03-25 01:28:00,30.2,29.5,29.58,NE,41,0.0,0.0,97,0.00,,CLR,0.00,0.00,VWS V14.01,2013-03-25 05:28:00,
2013-03-25 01:33:00,30.2,29.5,29.61,NE,38,0.0,0.0,97,0.00,,CLR,0.00,0.00,VWS V14.01,2013-03-25 05:33:00,
2013-03-25 01:38:00,30.2,29.5,29.61,NE,38,0.0,0.0,97,0.00,,CLR,0.00,0.00,VWS V14.01,2013-03-25 05:38:00,
2013-03-25 01:43:00,30.2,29.5,29.61,North,6,0.0,0.0,97,0.00,,CLR,0.00,0.00,VWS V14.01,2013-03-25 05:43:00,
2013-03-25 01:48:00,30.2,29.5,29.63,North,6,0.0,0.0,97,0.00,,CLR,0.00,0.00,VWS V14.01,2013-03-25 05:48:00,
2013-03-25 01:53:00,30.2,29.5,29.63,North,6,0.0,0.0,97,0.00,,CLR,0.00,0.00,VWS V14.01,2013-03-25 05:53:00,
2013-03-25 01:58:00,30.3,29.5,29.63,North,6,0.0,0.0,97,0.00,,CLR,0.00,0.00,VWS V14.01,2013-03-25 05:58:00,
2013-03-25 02:03:00,30.3,29.5,29.63,North,6,0.0,0.0,97,0.00,,CLR,0.00,0.00,VWS V14.01,2013-03-25 06:03:00,
2013-03-25 02:09:00,30.3,29.5,29.63,North,6,0.0,0.0,97,0.00,,CLR,0.00,0.00,VWS V14.01,2013-03-25 06:09:00,
2013-03-25 02:14:00,30.3,29.5,29.63,North,6,0.0,0.0,97,0.00,,CLR,0.00,0.00,VWS V14.01,2013-03-25 06:14:00,
2013-03-25 02:19:00,30.3,29.5,29.63,North,7,0.0,0.0,97,0.00,,CLR,0.00,0.00,VWS V14.01,2013-03-25 06:19:00,
2013-03-25 02:24:00,30.2,29.5,29.63,North,7,0.0,0.0,97,0.00,,CLR,0.00,0.00,VWS V14.01,2013-03-25 06:24:00,
2013-03-25 02:29:00,30.2,29.5,29.63,North,7,0.0,0.0,97,0.00,,CLR,0.00,0.00,VWS V14.01,2013-03-25 06:29:00,
2013-03-25 02:34:00,30.2,29.5,29.62,North,11,0.0,0.0,97,0.00,,CLR,0.00,0.00,VWS V14.01,2013-03-25 06:34:00,
2013-03-25 02:39:00,30.2,29.5,29.62,North,11,0.0,0.0,97,0.00,,CLR,0.00,0.00,VWS V14.01,2013-03-25 06:39:00,
2013-03-25 02:44:00,30.2,29.5,29.62,North,11,0.0,0.0,97,0.00,,CLR,0.00,0.00,VWS V14.01,2013-03-25 06:44:00,
2013-03-25 02:49:00,30.0,29.2,29.61,North,11,0.0,0.0,97,0.00,,CLR,0.00,0.00,VWS V14.01,2013-03-25 06:49:00,
2013-03-25 02:54:00,30.0,29.2,29.61,North,11,0.0,0.0,97,0.00,,CLR,0.00,0.00,VWS V14.01,2013-03-25 06:54:00,
2013-03-25 03:00:00,30.0,29.2,29.61,North,11,0.0,0.0,97,0.00,,CLR,0.00,0.00,VWS V14.01,2013-03-25 07:00:00,
2013-03-25 03:05:00,30.0,29.2,29.61,North,11,0.0,0.0,97,0.00,,CLR,0.00,0.00,VWS V14.01,2013-03-25 07:05:00,
2013-03-25 03:10:00,30.0,29.2,29.61,North,11,0.0,0.0,97,0.00,,CLR,0.00,0.00,VWS V14.01,2013-03-25 07:10:00,
2013-03-25 03:15:00,30.0,29.2,29.61,North,11,0.0,0.0,97,0.00,,CLR,0.00,0.00,VWS V14.01,2013-03-25 07:15:00,
2013-03-25 03:20:00,30.0,29.2,29.61,North,11,0.0,0.0,97,0.00,,CLR,0.00,0.00,VWS V14.01,2013-03-25 07:20:00,
2013-03-25 03:25:00,29.9,29.1,29.61,North,11,0.0,0.0,97,0.00,,CLR,0.00,0.00,VWS V14.01,2013-03-25 07:25:00,
2013-03-25 03:30:00,29.9,29.1,29.61,North,11,0.0,0.0,97,0.00,,CLR,0.00,0.00,VWS V14.01,2013-03-25 07:30:00,
2013-03-25 03:35:00,29.9,29.1,29.60,North,11,0.0,0.0,97,0.00,,CLR,0.00,0.00,VWS V14.01,2013-03-25 07:35:00,
2013-03-25 03:40:00,29.9,29.1,29.60,North,11,0.0,0.0,97,0.00,,CLR,0.00,0.00,VWS V14.01,2013-03-25 07:40:00,
2013-03-25 03:45:00,29.9,29.1,29.60,North,11,0.0,0.0,97,0.00,,CLR,0.00,0.00,VWS V14.01,2013-03-25 07:45:00,
2013-03-25 03:50:00,29.9,29.1,29.60,North,11,0.0,0.0,97,0.00,,CLR,0.00,0.00,VWS V14.01,2013-03-25 07:50:00,
2013-03-25 03:56:00,29.9,29.1,29.60,North,11,0.0,0.0,97,0.00,,CLR,0.00,0.00,VWS V14.01,2013-03-25 07:56:00,
2013-03-25 04:01:00,29.9,29.1,29.60,North,11,0.0,0.0,97,0.00,,CLR,0.00,0.00,VWS V14.01,2013-03-25 08:01:00,
2013-03-25 04:06:00,29.9,29.4,29.59,North,11,0.0,0.0,98,0.00,,CLR,0.00,0.00,VWS V14.01,2013-03-25 08:06:00,
2013-03-25 04:11:00,29.9,29.4,29.59,North,11,0.0,0.0,98,0.00,,CLR,0.00,0.00,VWS V14.01,2013-03-25 08:11:00,
2013-03-25 04:16:00,29.9,29.4,29.59,North,11,0.0,0.0,98,0.00,,CLR,0.00,0.00,VWS V14.01,2013-03-25 08:16:00,
2013-03-25 04:21:00,29.7,29.2,29.58,North,11,0.0,0.0,98,0.00,,CLR,0.00,0.00,VWS V14.01,2013-03-25 08:21:00,
2013-03-25 04:26:00,29.7,29.2,29.58,North,11,0.0,0.0,98,0.00,,CLR,0.00,0.00,VWS V14.01,2013-03-25 08:26:00,
2013-03-25 04:31:00,29.7,29.2,29.57,North,11,0.0,0.0,98,0.00,,CLR,0.00,0.00,VWS V14.01,2013-03-25 08:31:00,
2013-03-25 04:36:00,29.7,29.2,29.57,North,11,0.0,0.0,98,0.00,,CLR,0.00,0.00,VWS V14.01,2013-03-25 08:36:00,
2013-03-25 04:42:00,29.7,29.2,29.57,North,11,0.0,0.0,98,0.00,,CLR,0.00,0.00,VWS V14.01,2013-03-25 08:42:00,
2013-03-25 04:47:00,29.7,29.2,29.56,North,11,0.0,0.0,98,0.00,,CLR,0.00,0.00,VWS V14.01,2013-03-25 08:47:00,
2013-03-25 04:52:00,29.7,29.2,29.56,North,11,0.0,0.0,98,0.00,,CLR,0.00,0.00,VWS V14.01,2013-03-25 08:52:00,
2013-03-25 04:57:00,29.7,29.2,29.56,North,11,0.0,0.0,98,0.00,,CLR,0.00,0.00,VWS V14.01,2013-03-25 08:57:00,
2013-03-25 05:02:00,29.7,29.2,29.56,North,11,0.0,0.0,98,0.00,,CLR,0.00,0.00,VWS V14.01,2013-03-25 09:02:00,
2013-03-25 05:07:00,29.7,29.2,29.56,North,11,0.0,0.0,98,0.00,,CLR,0.00,0.00,VWS V14.01,2013-03-25 09:07:00,
2013-03-25 05:12:00,29.7,29.2,29.56,North,11,0.0,0.0,98,0.00,,CLR,0.00,0.00,VWS V14.01,2013-03-25 09:12:00,
2013-03-25 05:18:00,29.7,29.2,29.56,North,11,0.0,0.0,98,0.00,,CLR,0.00,0.00,VWS V14.01,2013-03-25 09:18:00,
2013-03-25 05:23:00,29.7,29.2,29.56,North,11,0.0,0.0,98,0.00,,CLR,0.00,0.00,VWS V14.01,2013-03-25 09:23:00,
2013-03-25 05:28:00,29.7,29.2,29.56,North,11,0.0,0.0,98,0.00,,CLR,0.00,0.00,VWS V14.01,2013-03-25 09:28:00,
2013-03-25 05:33:00,29.7,29.2,29.56,North,11,0.0,0.0,98,0.00,,CLR,0.00,0.00,VWS V14.01,2013-03-25 09:33:00,
2013-03-25 05:38:00,29.7,29.2,29.56,North,11,0.0,0.0,98,0.00,,CLR,0.00,0.00,VWS V14.01,2013-03-25 09:38:00,
2013-03-25 05:43:00,29.7,29.2,29.56,North,11,0.0,0.0,98,0.00,,CLR,0.00,0.00,VWS V14.01,2013-03-25 09:43:00,
2013-03-25 05:48:00,29.7,29.2,29.55,North,11,0.0,0.0,98,0.00,,CLR,0.00,0.00,VWS V14.01,2013-03-25 09:48:00,
2013-03-25 05:53:00,29.7,29.2,29.55,North,11,0.0,0.0,98,0.00,,CLR,0.00,0.00,VWS V14.01,2013-03-25 09:53:00,
2013-03-25 05:58:00,29.7,29.2,29.55,North,11,0.0,0.0,98,0.00,,CLR,0.00,0.00,VWS V14.01,2013-03-25 09:58:00,
2013-03-25 06:03:00,29.7,29.2,29.55,North,11,0.0,0.0,98,0.00,,CLR,0.00,0.00,VWS V14.01,2013-03-25 10:03:00,
2013-03-25 06:08:00,29.7,29.2,29.55,North,11,0.0,0.0,98,0.00,,CLR,0.00,0.00,VWS V14.01,2013-03-25 10:08:00,
2013-03-25 06:13:00,29.7,29.2,29.55,North,11,0.0,0.0,98,0.00,,CLR,0.00,0.00,VWS V14.01,2013-03-25 10:13:00,
2013-03-25 06:19:00,29.6,29.1,29.55,North,11,0.0,0.0,98,0.00,,CLR,0.00,0.00,VWS V14.01,2013-03-25 10:19:00,
2013-03-25 06:24:00,29.6,29.1,29.55,North,11,0.0,0.0,98,0.00,,CLR,0.00,0.00,VWS V14.01,2013-03-25 10:24:00,
2013-03-25 06:29:00,29.6,29.1,29.55,North,11,0.0,0.0,98,0.00,,CLR,0.00,0.00,VWS V14.01,2013-03-25 10:29:00,
2013-03-25 06:34:00,29.6,29.1,29.55,North,11,0.0,0.0,98,0.00,,CLR,0.00,0.00,VWS V14.01,2013-03-25 10:34:00,
2013-03-25 06:39:00,29.6,29.1,29.55,North,11,0.0,0.0,98,0.00,,CLR,0.00,0.00,VWS V14.01,2013-03-25 10:39:00,
2013-03-25 06:44:00,29.6,29.1,29.55,North,11,0.0,0.0,98,0.00,,CLR,0.00,0.00,VWS V14.01,2013-03-25 10:44:00,
2013-03-25 06:49:00,29.6,29.1,29.55,North,11,0.0,0.0,98,0.00,,CLR,0.00,0.00,VWS V14.01,2013-03-25 10:49:00,
2013-03-25 06:54:00,29.6,29.1,29.55,North,11,0.0,0.0,98,0.00,,CLR,0.00,0.00,VWS V14.01,2013-03-25 10:54:00,
2013-03-25 06:59:00,29.6,29.1,29.55,North,11,0.0,0.0,98,0.00,,CLR,0.00,0.00,VWS V14.01,2013-03-25 10:59:00,
2013-03-25 07:04:00,29.6,29.1,29.54,North,11,0.0,0.0,98,0.00,,CLR,0.00,0.00,VWS V14.01,2013-03-25 11:04:00,
2013-03-25 07:09:00,29.6,29.1,29.54,North,11,0.0,0.0,98,0.00,,CLR,0.00,0.00,VWS V14.01,2013-03-25 11:09:00,
2013-03-25 07:14:00,29.6,29.1,29.54,North,11,0.0,0.0,98,0.00,,CLR,0.00,0.00,VWS V14.01,2013-03-25 11:14:00,
2013-03-25 07:20:00,29.6,29.1,29.54,North,11,0.0,0.0,98,0.00,,CLR,0.00,0.00,VWS V14.01,2013-03-25 11:20:00,
2013-03-25 07:25:00,29.6,29.1,29.54,North,11,0.0,0.0,98,0.00,,CLR,0.00,0.00,VWS V14.01,2013-03-25 11:25:00,
2013-03-25 07:30:00,29.6,29.1,29.54,North,11,0.0,0.0,98,0.00,,CLR,0.00,0.00,VWS V14.01,2013-03-25 11:30:00,
2013-03-25 07:35:00,29.6,29.1,29.54,North,11,0.0,0.0,98,0.00,,CLR,0.00,0.00,VWS V14.01,2013-03-25 11:35:00,
2013-03-25 07:40:00,29.6,29.1,29.54,North,11,0.0,0.0,98,0.00,,CLR,0.00,5.00,VWS V14.01,2013-03-25 11:40:00,
2013-03-25 07:45:00,29.7,29.2,29.54,North,11,0.0,0.0,98,0.00,,CLR,0.00,7.00,VWS V14.01,2013-03-25 11:45:00,
2013-03-25 07:50:00,29.7,29.2,29.54,North,11,0.0,0.0,98,0.00,,CLR,0.00,9.00,VWS V14.01,2013-03-25 11:50:00,
2013-03-25 07:55:00,29.9,29.4,29.54,North,11,0.0,0.0,98,0.00,,CLR,0.00,9.00,VWS V14.01,2013-03-25 11:55:00,
2013-03-25 08:01:00,29.9,29.4,29.54,North,11,0.0,0.0,98,0.00,,CLR,0.00,11.00,VWS V14.01,2013-03-25 12:01:00,
2013-03-25 08:06:00,30.0,29.5,29.53,North,11,0.0,0.0,98,0.00,,CLR,0.00,12.00,VWS V14.01,2013-03-25 12:06:00,
2013-03-25 08:11:00,30.0,29.5,29.53,North,11,0.0,0.0,98,0.00,,CLR,0.00,12.00,VWS V14.01,2013-03-25 12:11:00,
2013-03-25 08:16:00,30.2,29.7,29.54,North,11,0.0,0.0,98,0.00,,CLR,0.00,14.00,VWS V14.01,2013-03-25 12:16:00,
2013-03-25 08:22:00,30.2,29.7,29.54,North,11,0.0,0.0,98,0.00,,CLR,0.00,16.00,VWS V14.01,2013-03-25 12:22:00,
2013-03-25 08:27:00,30.2,29.7,29.54,North,11,0.0,0.0,98,0.00,,CLR,0.00,16.00,VWS V14.01,2013-03-25 12:27:00,
2013-03-25 08:32:00,30.3,29.8,29.53,North,11,0.0,0.0,98,0.00,,CLR,0.00,18.00,VWS V14.01,2013-03-25 12:32:00,
2013-03-25 08:37:00,30.3,29.8,29.53,North,11,0.0,0.0,98,0.00,,CLR,0.00,18.00,VWS V14.01,2013-03-25 12:37:00,
2013-03-25 08:42:00,30.5,30.0,29.53,North,11,0.0,0.0,98,0.00,,CLR,0.00,18.00,VWS V14.01,2013-03-25 12:42:00,
2013-03-25 08:47:00,30.6,30.1,29.53,North,11,0.0,0.0,98,0.00,,CLR,0.00,19.00,VWS V14.01,2013-03-25 12:47:00,
2013-03-25 08:52:00,30.8,30.3,29.53,North,11,0.0,0.0,98,0.00,,CLR,0.00,16.00,VWS V14.01,2013-03-25 12:52:00,
2013-03-25 08:57:00,30.8,30.3,29.53,North,11,0.0,0.0,98,0.00,,CLR,0.00,16.00,VWS V14.01,2013-03-25 12:57:00,
2013-03-25 09:02:00,30.6,29.9,29.53,North,11,0.0,0.0,97,0.00,,CLR,0.00,19.00,VWS V14.01,2013-03-25 13:02:00,
2013-03-25 09:08:00,30.6,29.9,29.53,North,11,0.0,0.0,97,0.00,,CLR,0.00,21.00,VWS V14.01,2013-03-25 13:08:00,
2013-03-25 09:13:00,30.8,30.0,29.53,North,11,0.0,0.0,97,0.00,,CLR,0.00,21.00,VWS V14.01,2013-03-25 13:13:00,
2013-03-25 09:18:00,30.8,30.0,29.54,North,11,0.0,0.0,97,0.00,,CLR,0.00,21.00,VWS V14.01,2013-03-25 13:18:00,
2013-03-25 09:23:00,30.9,30.1,29.54,North,11,0.0,0.0,97,0.00,,CLR,0.00,21.00,VWS V14.01,2013-03-25 13:23:00,
2013-03-25 09:28:00,30.9,30.1,29.54,North,11,0.0,0.0,97,0.00,,CLR,0.00,23.00,VWS V14.01,2013-03-25 13:28:00,
2013-03-25 09:33:00,31.1,30.4,29.54,North,11,0.0,0.0,97,0.00,,CLR,0.00,23.00,VWS V14.01,2013-03-25 13:33:00,
2013-03-25 09:38:00,31.2,30.5,29.54,North,11,0.0,0.0,97,0.00,,CLR,0.00,21.00,VWS V14.01,2013-03-25 13:38:00,
2013-03-25 09:43:00,31.4,30.6,29.54,North,11,0.0,0.0,97,0.00,,CLR,0.00,21.00,VWS V14.01,2013-03-25 13:43:00,
2013-03-25 09:48:00,31.4,30.6,29.54,North,11,0.0,0.0,97,0.00,,CLR,0.00,19.00,VWS V14.01,2013-03-25 13:48:00,
2013-03-25 09:53:00,31.2,30.5,29.54,North,11,0.0,0.0,97,0.00,,CLR,0.00,23.00,VWS V14.01,2013-03-25 13:53:00,
2013-03-25 09:58:00,31.4,30.4,29.54,North,11,0.0,0.0,96,0.00,,CLR,0.00,25.00,VWS V14.01,2013-03-25 13:58:00,
2013-03-25 10:04:00,31.4,30.4,29.53,North,11,0.0,0.0,96,0.00,,CLR,0.00,25.00,VWS V14.01,2013-03-25 14:04:00,
2013-03-25 10:09:00,31.7,30.7,29.53,North,11,0.0,0.0,96,0.00,,CLR,0.00,25.00,VWS V14.01,2013-03-25 14:09:00,
2013-03-25 10:14:00,31.8,31.0,29.53,NNE,13,0.0,0.0,97,0.00,,CLR,0.00,25.00,VWS V14.01,2013-03-25 14:14:00,
2013-03-25 10:19:00,31.8,30.8,29.55,NNE,13,0.0,0.0,96,0.00,,CLR,0.00,23.00,VWS V14.01,2013-03-25 14:19:00,
2013-03-25 10:24:00,31.8,30.8,29.55,NNE,13,0.0,0.0,96,0.00,,CLR,0.00,23.00,VWS V14.01,2013-03-25 14:24:00,
2013-03-25 10:29:00,31.8,30.8,29.55,NNE,14,0.0,0.0,96,0.00,,CLR,0.00,23.00,VWS V14.01,2013-03-25 14:29:00,
2013-03-25 10:34:00,31.8,30.8,29.55,NNE,28,0.0,0.0,96,0.00,,CLR,0.00,23.00,VWS V14.01,2013-03-25 14:34:00,
2013-03-25 10:39:00,31.9,31.1,29.55,NE,38,0.0,0.0,97,0.00,,CLR,0.00,21.00,VWS V14.01,2013-03-25 14:39:00,
2013-03-25 10:45:00,31.8,31.0,29.55,East,82,0.0,0.0,97,0.00,,CLR,0.00,19.00,VWS V14.01,2013-03-25 14:45:00,
2013-03-25 10:50:00,31.7,31.0,29.55,East,85,0.0,0.0,97,0.00,,CLR,0.00,21.00,VWS V14.01,2013-03-25 14:50:00,
2013-03-25 10:55:00,31.7,31.0,29.55,East,80,0.0,0.0,97,0.00,,CLR,0.00,21.00,VWS V14.01,2013-03-25 14:55:00,
2013-03-25 11:00:00,31.5,30.5,29.55,East,89,0.0,1.0,96,0.00,,CLR,0.00,21.00,VWS V14.01,2013-03-25 15:00:00,
2013-03-25 11:05:00,31.7,30.7,29.55,East,99,0.0,0.0,96,0.01,,CLR,0.01,25.00,VWS V14.01,2013-03-25 15:05:00,
2013-03-25 11:10:00,31.8,30.8,29.55,ESE,114,0.0,1.0,96,0.01,,CLR,0.01,28.00,VWS V14.01,2013-03-25 15:10:00,
2013-03-25 11:15:00,31.9,30.9,29.55,ESE,114,0.0,0.0,96,0.01,,CLR,0.01,33.00,VWS V14.01,2013-03-25 15:15:00,
2013-03-25 11:20:00,32.2,31.2,29.55,ESE,114,0.0,0.0,96,0.01,,CLR,0.01,33.00,VWS V14.01,2013-03-25 15:20:00,
2013-03-25 11:25:00,32.5,31.5,29.55,ESE,114,0.0,0.0,96,0.01,,CLR,0.01,32.00,VWS V14.01,2013-03-25 15:25:00,
2013-03-25 11:30:00,32.7,31.7,29.55,ESE,112,0.0,2.0,96,0.01,,CLR,0.01,40.00,VWS V14.01,2013-03-25 15:30:00,
2013-03-25 11:35:00,33.0,32.0,29.55,ESE,112,0.0,0.0,96,0.01,,CLR,0.01,44.00,VWS V14.01,2013-03-25 15:35:00,
2013-03-25 11:40:00,33.4,32.4,29.55,ESE,112,0.0,0.0,96,0.01,,CLR,0.01,49.00,VWS V14.01,2013-03-25 15:40:00,
2013-03-25 11:45:00,33.7,32.7,29.55,ESE,112,0.0,0.0,96,0.01,,CLR,0.01,53.00,VWS V14.01,2013-03-25 15:45:00,
2013-03-25 11:50:00,33.9,32.9,29.55,ESE,112,0.0,0.0,96,0.01,,CLR,0.01,53.00,VWS V14.01,2013-03-25 15:50:00,
2013-03-25 11:56:00,33.9,32.9,29.55,ENE,65,2.0,3.0,96,0.01,,CLR,0.01,53.00,VWS V14.01,2013-03-25 15:56:00,
2013-03-25 12:01:00,34.0,33.0,29.55,ENE,65,0.0,3.0,96,0.01,,CLR,0.01,60.00,VWS V14.01,2013-03-25 16:01:00,
2013-03-25 12:06:00,34.2,33.2,29.55,ENE,65,0.0,2.0,96,0.02,,CLR,0.02,63.00,VWS V14.01,2013-03-25 16:06:00,
2013-03-25 12:11:00,34.0,33.0,29.55,ENE,65,1.0,2.0,96,0.02,,CLR,0.02,60.00,VWS V14.01,2013-03-25 16:11:00,
2013-03-25 12:17:00,34.0,32.7,29.55,ENE,65,1.0,2.0,95,0.01,,CLR,0.02,53.00,VWS V14.01,2013-03-25 16:17:00,
2013-03-25 12:22:00,33.7,32.4,29.55,ENE,65,0.0,2.0,95,0.03,,CLR,0.04,58.00,VWS V14.01,2013-03-25 16:22:00,
2013-03-25 12:27:00,33.7,32.4,29.55,East,96,0.0,2.0,95,0.03,,CLR,0.04,62.00,VWS V14.01,2013-03-25 16:27:00,
2013-03-25 12:32:00,33.7,32.4,29.55,East,96,0.0,0.0,95,0.04,,CLR,0.05,65.00,VWS V14.01,2013-03-25 16:32:00,
2013-03-25 12:37:00,33.7,32.4,29.55,East,96,0.0,2.0,95,0.05,,CLR,0.06,74.00,VWS V14.01,2013-03-25 16:37:00,
2013-03-25 12:42:00,33.9,32.6,29.55,East,96,0.0,0.0,95,0.05,,CLR,0.06,93.00,VWS V14.01,2013-03-25 16:42:00,
2013-03-25 12:47:00,34.0,32.7,29.55,East,96,0.0,0.0,95,0.06,,CLR,0.07,121.00,VWS V14.01,2013-03-25 16:47:00,
2013-03-25 12:52:00,34.5,33.2,29.55,East,96,0.0,0.0,95,0.07,,CLR,0.08,155.00,VWS V14.01,2013-03-25 16:52:00,
2013-03-25 12:57:00,34.9,33.6,29.55,East,96,0.0,0.0,95,0.08,,CLR,0.09,229.00,VWS V14.01,2013-03-25 16:57:00,
2013-03-25 13:02:00,35.5,34.2,29.55,East,96,0.0,1.0,95,0.09,,CLR,0.10,253.00,VWS V14.01,2013-03-25 17:02:00,
2013-03-25 13:08:00,35.5,33.7,29.55,East,96,0.0,1.0,93,0.10,,CLR,0.11,287.00,VWS V14.01,2013-03-25 17:08:00,
2013-03-25 13:13:00,35.3,33.5,29.55,East,96,1.0,1.0,93,0.10,,CLR,0.12,296.00,VWS V14.01,2013-03-25 17:13:00,
2013-03-25 13:18:00,35.2,33.4,29.56,East,96,0.0,2.0,93,0.11,,CLR,0.13,296.00,VWS V14.01,2013-03-25 17:18:00,
2013-03-25 13:23:00,35.0,33.2,29.56,East,96,0.0,0.0,93,0.10,,CLR,0.14,306.00,VWS V14.01,2013-03-25 17:23:00,
2013-03-25 13:28:00,35.3,33.5,29.56,East,96,0.0,0.0,93,0.12,,CLR,0.16,347.00,VWS V14.01,2013-03-25 17:28:00,
2013-03-25 13:34:00,35.8,34.0,29.55,East,96,0.0,0.0,93,0.11,,CLR,0.16,401.00,VWS V14.01,2013-03-25 17:34:00,
2013-03-25 13:39:00,36.3,34.2,29.55,East,96,0.0,0.0,92,0.13,,CLR,0.18,384.00,VWS V14.01,2013-03-25 17:39:00,
2013-03-25 13:44:00,36.8,34.7,29.55,East,96,0.0,0.0,92,0.13,,CLR,0.19,366.00,VWS V14.01,2013-03-25 17:44:00,
2013-03-25 13:49:00,36.5,34.1,29.55,East,96,0.0,0.0,91,0.14,,CLR,0.20,387.00,VWS V14.01,2013-03-25 17:49:00,
2013-03-25 13:54:00,36.5,34.1,29.55,East,96,0.0,0.0,91,0.14,,CLR,0.22,373.00,VWS V14.01,2013-03-25 17:54:00,
2013-03-25 13:59:00,36.3,33.9,29.55,East,96,0.0,0.0,91,0.15,,CLR,0.23,331.00,VWS V14.01,2013-03-25 17:59:00,
2013-03-25 14:04:00,36.3,33.9,29.55,East,96,0.0,0.0,91,0.14,,CLR,0.24,341.00,VWS V14.01,2013-03-25 18:04:00,
2013-03-25 14:09:00,36.5,34.1,29.55,East,96,0.0,0.0,91,0.16,,CLR,0.26,343.00,VWS V14.01,2013-03-25 18:09:00,
2013-03-25 14:14:00,36.3,33.7,29.55,East,96,0.0,1.0,90,0.14,,CLR,0.26,364.00,VWS V14.01,2013-03-25 18:14:00,
2013-03-25 14:20:00,36.5,33.8,29.55,East,96,0.0,1.0,90,0.16,,CLR,0.28,377.00,VWS V14.01,2013-03-25 18:20:00,
2013-03-25 14:25:00,36.2,33.3,29.55,East,96,0.0,1.0,89,0.15,,CLR,0.29,347.00,VWS V14.01,2013-03-25 18:25:00,
2013-03-25 14:30:00,35.9,33.0,29.55,East,96,0.0,1.0,89,0.16,,CLR,0.30,364.00,VWS V14.01,2013-03-25 18:30:00,
2013-03-25 14:35:00,36.2,33.6,29.55,East,96,0.0,0.0,90,0.16,,CLR,0.32,350.00,VWS V14.01,2013-03-25 18:35:00,
2013-03-25 14:40:00,36.0,33.1,29.55,NNW,336,1.0,2.0,89,0.16,,CLR,0.32,355.00,VWS V14.01,2013-03-25 18:40:00,
2013-03-25 14:45:00,36.0,33.1,29.55,WNW,284,1.0,2.0,89,0.15,,CLR,0.33,354.00,VWS V14.01,2013-03-25 18:45:00,
2013-03-25 14:51:00,36.2,33.6,29.54,WNW,285,0.0,2.0,90,0.16,,CLR,0.34,352.00,VWS V14.01,2013-03-25 18:51:00,
2013-03-25 14:56:00,36.5,33.8,29.54,WNW,285,0.0,1.0,90,0.15,,CLR,0.36,345.00,VWS V14.01,2013-03-25 18:56:00,
2013-03-25 15:01:00,37.0,34.3,29.54,WNW,285,1.0,1.0,90,0.15,,CLR,0.36,336.00,VWS V14.01,2013-03-25 19:01:00,
2013-03-25 15:06:00,36.6,33.7,29.55,SW,236,0.0,2.0,89,0.14,,CLR,0.38,322.00,VWS V14.01,2013-03-25 19:06:00,
2013-03-25 15:11:00,36.8,33.9,29.55,SSW,212,0.0,2.0,89,0.14,,CLR,0.38,292.00,VWS V14.01,2013-03-25 19:11:00,
2013-03-25 15:16:00,37.2,34.3,29.55,SSW,212,0.0,0.0,89,0.13,,CLR,0.39,289.00,VWS V14.01,2013-03-25 19:16:00,
2013-03-25 15:21:00,37.3,34.4,29.55,South,186,0.0,0.0,89,0.14,,CLR,0.40,253.00,VWS V14.01,2013-03-25 19:21:00,
2013-03-25 15:26:00,37.5,34.6,29.55,South,186,0.0,0.0,89,0.12,,CLR,0.40,246.00,VWS V14.01,2013-03-25 19:26:00,
2013-03-25 15:32:00,37.6,34.7,29.55,South,186,0.0,0.0,89,0.13,,CLR,0.41,208.00,VWS V14.01,2013-03-25 19:32:00,
2013-03-25 15:37:00,37.5,34.3,29.55,NE,55,0.0,1.0,88,0.12,,CLR,0.42,194.00,VWS V14.01,2013-03-25 19:37:00,
2013-03-25 15:42:00,36.9,33.7,29.55,NE,55,0.0,1.0,88,0.12,,CLR,0.42,181.00,VWS V14.01,2013-03-25 19:42:00,
2013-03-25 15:47:00,36.3,33.1,29.55,NE,55,0.0,0.0,88,0.11,,CLR,0.43,157.00,VWS V14.01,2013-03-25 19:47:00,
2013-03-25 15:52:00,36.0,33.1,29.55,NE,55,0.0,0.0,89,0.10,,CLR,0.44,135.00,VWS V14.01,2013-03-25 19:52:00,
2013-03-25 15:57:00,35.9,33.0,29.55,NE,55,0.0,1.0,89,0.10,,CLR,0.44,128.00,VWS V14.01,2013-03-25 19:57:00,
2013-03-25 16:02:00,35.8,32.9,29.56,NE,55,0.0,0.0,89,0.09,,CLR,0.45,97.00,VWS V14.01,2013-03-25 20:02:00,
2013-03-25 16:07:00,35.3,32.4,29.56,WNW,284,0.0,2.0,89,0.10,,CLR,0.46,99.00,VWS V14.01,2013-03-25 20:07:00,
2013-03-25 16:12:00,34.8,31.9,29.56,WNW,294,0.0,0.0,89,0.08,,CLR,0.46,150.00,VWS V14.01,2013-03-25 20:12:00,
2013-03-25 16:17:00,34.8,32.2,29.56,SW,222,2.0,2.0,90,0.08,,CLR,0.46,199.00,VWS V14.01,2013-03-25 20:17:00,
2013-03-25 16:22:00,34.5,32.2,29.56,SW,220,0.0,1.0,91,0.08,,CLR,0.48,190.00,VWS V14.01,2013-03-25 20:22:00,
2013-03-25 16:27:00,34.8,32.7,29.56,West,261,0.0,2.0,92,0.08,,CLR,0.48,176.00,VWS V14.01,2013-03-25 20:27:00,
2013-03-25 16:33:00,34.9,32.5,29.57,SSW,198,0.0,0.0,91,0.07,,CLR,0.48,162.00,VWS V14.01,2013-03-25 20:33:00,
2013-03-25 16:38:00,34.8,32.7,29.57,SSW,198,0.0,2.0,92,0.07,,CLR,0.48,148.00,VWS V14.01,2013-03-25 20:38:00,
2013-03-25 16:43:00,35.0,32.9,29.57,SSW,198,0.0,0.0,92,0.07,,CLR,0.49,137.00,VWS V14.01,2013-03-25 20:43:00,
2013-03-25 16:48:00,35.3,33.2,29.57,SSW,198,0.0,0.0,92,0.08,,CLR,0.50,141.00,VWS V14.01,2013-03-25 20:48:00,
2013-03-25 16:53:00,35.5,33.4,29.57,SSW,198,0.0,0.0,92,0.06,,CLR,0.50,144.00,VWS V14.01,2013-03-25 20:53:00,
2013-03-25 16:58:00,35.6,33.5,29.57,SSW,198,0.0,0.0,92,0.06,,CLR,0.50,155.00,VWS V14.01,2013-03-25 20:58:00,
2013-03-25 17:03:00,35.5,33.4,29.58,SW,223,1.0,2.0,92,0.06,,CLR,0.50,174.00,VWS V14.01,2013-03-25 21:03:00,
2013-03-25 17:08:00,35.8,33.7,29.58,WSW,244,0.0,2.0,92,0.06,,CLR,0.50,171.00,VWS V14.01,2013-03-25 21:08:00,
2013-03-25 17:14:00,35.8,33.7,29.58,WSW,244,0.0,0.0,92,0.05,,CLR,0.51,151.00,VWS V14.01,2013-03-25 21:14:00,
2013-03-25 17:19:00,35.6,33.8,29.58,WSW,244,0.0,1.0,93,0.06,,CLR,0.52,135.00,VWS V14.01,2013-03-25 21:19:00,
2013-03-25 17:24:00,35.6,33.5,29.58,WSW,247,0.0,2.0,92,0.04,,CLR,0.52,130.00,VWS V14.01,2013-03-25 21:24:00,
2013-03-25 17:29:00,35.5,33.7,29.58,WSW,248,0.0,3.0,93,0.04,,CLR,0.52,141.00,VWS V14.01,2013-03-25 21:29:00,
2013-03-25 17:34:00,35.2,33.1,29.58,SSW,212,1.0,5.0,92,0.04,,CLR,0.52,141.00,VWS V14.01,2013-03-25 21:34:00,
2013-03-25 17:39:00,35.3,33.5,29.58,WSW,240,0.0,5.0,93,0.05,,CLR,0.53,114.00,VWS V14.01,2013-03-25 21:39:00,
2013-03-25 17:44:00,35.3,33.5,29.58,WSW,240,0.0,0.0,93,0.04,,CLR,0.53,97.00,VWS V14.01,2013-03-25 21:44:00,
2013-03-25 17:49:00,35.3,33.5,29.59,SW,232,0.0,1.0,93,0.04,,CLR,0.53,86.00,VWS V14.01,2013-03-25 21:49:00,
2013-03-25 17:54:00,35.3,33.5,29.59,WSW,248,0.0,1.0,93,0.03,,CLR,0.53,84.00,VWS V14.01,2013-03-25 21:54:00,
2013-03-25 18:00:00,35.3,33.5,29.59,WSW,254,1.0,2.0,93,0.03,,CLR,0.53,81.00,VWS V14.01,2013-03-25 22:00:00,
2013-03-25 18:05:00,35.3,33.5,29.60,WSW,240,0.0,1.0,93,0.03,,CLR,0.53,74.00,VWS V14.01,2013-03-25 22:05:00,
2013-03-25 18:10:00,35.2,33.4,29.60,WSW,241,0.0,2.0,93,0.03,,CLR,0.53,74.00,VWS V14.01,2013-03-25 22:10:00,
2013-03-25 18:15:00,35.0,33.2,29.60,WSW,241,1.0,2.0,93,0.03,,CLR,0.53,76.00,VWS V14.01,2013-03-25 22:15:00,
2013-03-25 18:20:00,34.9,33.1,29.61,WSW,251,0.0,2.0,93,0.03,,CLR,0.53,76.00,VWS V14.01,2013-03-25 22:20:00,
2013-03-25 18:25:00,34.9,33.3,29.61,WSW,251,0.0,0.0,94,0.02,,CLR,0.54,76.00,VWS V14.01,2013-03-25 22:25:00,
2013-03-25 18:30:00,35.0,33.5,29.61,WSW,251,0.0,0.0,94,0.02,,CLR,0.54,67.00,VWS V14.01,2013-03-25 22:30:00,
2013-03-25 18:35:00,35.2,33.7,29.62,WSW,251,0.0,0.0,94,0.02,,CLR,0.54,58.00,VWS V14.01,2013-03-25 22:35:00,
2013-03-25 18:40:00,34.9,33.3,29.62,SW,215,0.0,3.0,94,0.03,,CLR,0.55,48.00,VWS V14.01,2013-03-25 22:40:00,
2013-03-25 18:45:00,34.9,33.3,29.62,SW,215,0.0,2.0,94,0.02,,CLR,0.55,39.00,VWS V14.01,2013-03-25 22:45:00,
2013-03-25 18:50:00,34.8,33.2,29.63,SW,215,0.0,2.0,94,0.02,,CLR,0.55,35.00,VWS V14.01,2013-03-25 22:50:00,
2013-03-25 18:55:00,34.8,33.2,29.63,SW,215,0.0,0.0,94,0.02,,CLR,0.55,35.00,VWS V14.01,2013-03-25 22:55:00,
2013-03-25 19:00:00,34.6,33.0,29.63,SW,215,0.0,0.0,94,0.02,,CLR,0.55,30.00,VWS V14.01,2013-03-25 23:00:00,
2013-03-25 19:06:00,34.6,33.0,29.64,SW,215,0.0,0.0,94,0.02,,CLR,0.55,26.00,VWS V14.01,2013-03-25 23:06:00,
2013-03-25 19:11:00,34.5,33.0,29.64,SW,215,0.0,0.0,94,0.02,,CLR,0.55,23.00,VWS V14.01,2013-03-25 23:11:00,
2013-03-25 19:16:00,34.2,32.7,29.64,WSW,241,0.0,3.0,94,0.02,,CLR,0.55,19.00,VWS V14.01,2013-03-25 23:16:00,
2013-03-25 19:21:00,34.0,32.5,29.64,WSW,244,0.0,3.0,94,0.02,,CLR,0.55,12.00,VWS V14.01,2013-03-25 23:21:00,
2013-03-25 19:26:00,33.9,32.4,29.64,WSW,246,0.0,0.0,94,0.02,,CLR,0.55,9.00,VWS V14.01,2013-03-25 23:26:00,
2013-03-25 19:31:00,33.9,32.4,29.65,WSW,246,0.0,0.0,94,0.02,,CLR,0.55,7.00,VWS V14.01,2013-03-25 23:31:00,
2013-03-25 19:37:00,33.9,32.6,29.65,WSW,246,0.0,0.0,95,0.01,,CLR,0.55,5.00,VWS V14.01,2013-03-25 23:37:00,
2013-03-25 19:42:00,33.7,32.4,29.65,WSW,246,0.0,0.0,95,0.01,,CLR,0.55,0.00,VWS V14.01,2013-03-25 23:42:00,
2013-03-25 19:47:00,33.6,32.3,29.66,WSW,246,0.0,0.0,95,0.00,,CLR,0.55,0.00,VWS V14.01,2013-03-25 23:47:00,
2013-03-25 19:52:00,33.6,32.3,29.66,WSW,246,0.0,0.0,95,0.00,,CLR,0.55,0.00,VWS V14.01,2013-03-25 23:52:00,
2013-03-25 19:57:00,33.4,32.1,29.66,SW,227,1.0,3.0,95,0.00,,CLR,0.55,0.00,VWS V14.01,2013-03-25 23:57:00,
2013-03-25 20:02:00,33.4,32.1,29.67,SW,227,0.0,0.0,95,0.00,,CLR,0.55,0.00,VWS V14.01,2013-03-26 00:02:00,
2013-03-25 20:07:00,33.4,32.4,29.67,SE,134,0.0,3.0,96,0.00,,CLR,0.55,0.00,VWS V14.01,2013-03-26 00:07:00,
2013-03-25 20:12:00,33.3,32.3,29.67,SE,134,0.0,0.0,96,0.00,,CLR,0.55,0.00,VWS V14.01,2013-03-26 00:12:00,
2013-03-25 20:17:00,33.1,32.1,29.67,SSE,160,0.0,0.0,96,0.00,,CLR,0.55,0.00,VWS V14.01,2013-03-26 00:17:00,
2013-03-25 20:22:00,33.1,32.1,29.67,SSE,160,0.0,0.0,96,0.00,,CLR,0.55,0.00,VWS V14.01,2013-03-26 00:22:00,
2013-03-25 20:27:00,33.1,32.1,29.67,SSE,160,0.0,0.0,96,0.00,,CLR,0.55,0.00,VWS V14.01,2013-03-26 00:27:00,
2013-03-25 20:33:00,33.0,32.0,29.68,WSW,250,2.0,7.0,96,0.00,,CLR,0.55,0.00,VWS V14.01,2013-03-26 00:33:00,
2013-03-25 20:38:00,33.0,32.0,29.68,NNW,343,0.0,7.0,96,0.00,,CLR,0.55,0.00,VWS V14.01,2013-03-26 00:38:00,
2013-03-25 20:43:00,33.1,32.1,29.68,NNW,335,0.0,0.0,96,0.00,,CLR,0.55,0.00,VWS V14.01,2013-03-26 00:43:00,
2013-03-25 20:48:00,33.1,32.1,29.69,NNW,335,0.0,1.0,96,0.00,,CLR,0.55,0.00,VWS V14.01,2013-03-26 00:48:00,
2013-03-25 20:53:00,33.0,32.0,29.69,West,261,0.0,4.0,96,0.00,,CLR,0.55,0.00,VWS V14.01,2013-03-26 00:53:00,
2013-03-25 20:58:00,32.8,31.8,29.69,NW,311,2.0,6.0,96,0.00,,CLR,0.55,0.00,VWS V14.01,2013-03-26 00:58:00,
2013-03-25 21:03:00,32.7,31.4,29.69,NW,319,0.0,0.0,95,0.00,,CLR,0.55,0.00,VWS V14.01,2013-03-26 01:03:00,
2013-03-25 21:08:00,32.5,31.2,29.69,NNW,337,5.0,6.0,95,0.00,,CLR,0.55,0.00,VWS V14.01,2013-03-26 01:08:00,
2013-03-25 21:14:00,32.5,30.7,29.69,NW,318,3.0,6.0,93,0.00,,CLR,0.55,0.00,VWS V14.01,2013-03-26 01:14:00,
2013-03-25 21:19:00,32.5,29.9,29.71,North,354,1.0,7.0,90,0.00,,CLR,0.55,0.00,VWS V14.01,2013-03-26 01:19:00,
2013-03-25 21:24:00,32.5,29.9,29.71,North,356,0.0,1.0,90,0.00,,CLR,0.55,0.00,VWS V14.01,2013-03-26 01:24:00,
2013-03-25 21:29:00,32.5,29.4,29.71,North,359,1.0,6.0,88,0.00,,CLR,0.55,0.00,VWS V14.01,2013-03-26 01:29:00,
2013-03-25 21:34:00,32.5,29.1,29.71,NNW,344,0.0,2.0,87,0.00,,CLR,0.55,0.00,VWS V14.01,2013-03-26 01:34:00,
2013-03-25 21:39:00,32.7,28.7,29.71,NE,40,1.0,6.0,85,0.00,,CLR,0.55,0.00,VWS V14.01,2013-03-26 01:39:00,
2013-03-25 21:44:00,33.0,27.8,29.71,NE,41,2.0,6.0,81,0.00,,CLR,0.55,0.00,VWS V14.01,2013-03-26 01:44:00,
2013-03-25 21:49:00,33.1,27.9,29.71,NW,306,2.0,6.0,81,0.00,,CLR,0.55,0.00,VWS V14.01,2013-03-26 01:49:00,
2013-03-25 21:54:00,33.1,27.9,29.71,NW,308,2.0,2.0,81,0.00,,CLR,0.55,0.00,VWS V14.01,2013-03-26 01:54:00,
2013-03-25 21:59:00,33.1,27.9,29.71,WSW,246,0.0,4.0,81,0.00,,CLR,0.55,0.00,VWS V14.01,2013-03-26 01:59:00,
2013-03-25 22:04:00,33.1,28.2,29.72,WNW,302,0.0,3.0,82,0.00,,CLR,0.55,0.00,VWS V14.01,2013-03-26 02:04:00,
2013-03-25 22:09:00,33.3,27.5,29.72,North,0,5.0,10.0,79,0.00,,CLR,0.55,0.00,VWS V14.01,2013-03-26 02:09:00,
2013-03-25 22:15:00,33.4,27.3,29.72,NNW,329,2.0,5.0,78,0.00,,CLR,0.55,0.00,VWS V14.01,2013-03-26 02:15:00,
2013-03-25 22:20:00,33.6,27.5,29.72,NNW,329,0.0,5.0,78,0.00,,CLR,0.55,0.00,VWS V14.01,2013-03-26 02:20:00,
2013-03-25 22:25:00,33.4,27.9,29.72,NNW,329,0.0,0.0,80,0.00,,CLR,0.55,0.00,VWS V14.01,2013-03-26 02:25:00,
2013-03-25 22:30:00,33.3,28.1,29.72,NNW,329,0.0,1.0,81,0.00,,CLR,0.55,0.00,VWS V14.01,2013-03-26 02:30:00,
2013-03-25 22:35:00,33.3,27.8,29.73,NNW,329,0.0,2.0,80,0.00,,CLR,0.55,0.00,VWS V14.01,2013-03-26 02:35:00,
2013-03-25 22:40:00,33.1,27.3,29.73,NNW,329,1.0,3.0,79,0.00,,CLR,0.55,0.00,VWS V14.01,2013-03-26 02:40:00,
2013-03-25 22:45:00,33.3,27.2,29.73,NNW,329,3.0,3.0,78,0.00,,CLR,0.55,0.00,VWS V14.01,2013-03-26 02:45:00,
2013-03-25 22:50:00,33.3,27.5,29.73,NNW,329,2.0,5.0,79,0.00,,CLR,0.55,0.00,VWS V14.01,2013-03-26 02:50:00,
2013-03-25 22:55:00,33.3,27.8,29.73,NNW,339,2.0,6.0,80,0.00,,CLR,0.55,0.00,VWS V14.01,2013-03-26 02:55:00,
2013-03-25 23:00:00,33.4,27.0,29.73,NNW,335,5.0,8.0,77,0.00,,CLR,0.55,0.00,VWS V14.01,2013-03-26 03:00:00,
2013-03-25 23:05:00,33.7,27.0,29.73,North,353,6.0,6.0,76,0.00,,CLR,0.55,0.00,VWS V14.01,2013-03-26 03:05:00,
2013-03-25 23:10:00,33.9,26.8,29.73,NNW,342,3.0,7.0,75,0.00,,CLR,0.55,0.00,VWS V14.01,2013-03-26 03:10:00,
2013-03-25 23:16:00,34.0,26.9,29.73,NNW,333,1.0,6.0,75,0.00,,CLR,0.55,0.00,VWS V14.01,2013-03-26 03:16:00,
2013-03-25 23:21:00,34.0,26.9,29.73,North,359,8.0,8.0,75,0.00,,CLR,0.55,0.00,VWS V14.01,2013-03-26 03:21:00,
2013-03-25 23:26:00,34.2,26.5,29.73,NW,305,2.0,7.0,73,0.00,,CLR,0.55,0.00,VWS V14.01,2013-03-26 03:26:00,
2013-03-25 23:31:00,34.3,26.6,29.74,NW,322,0.0,11.0,73,0.00,,CLR,0.55,0.00,VWS V14.01,2013-03-26 03:31:00,
2013-03-25 23:36:00,34.5,26.4,29.74,NNW,330,0.0,6.0,72,0.00,,CLR,0.55,0.00,VWS V14.01,2013-03-26 03:36:00,
2013-03-25 23:41:00,34.6,25.8,29.74,NNW,340,2.0,6.0,70,0.00,,CLR,0.55,0.00,VWS V14.01,2013-03-26 03:41:00,
2013-03-25 23:46:00,34.5,26.4,29.74,WSW,257,2.0,5.0,72,0.00,,CLR,0.55,0.00,VWS V14.01,2013-03-26 03:46:00,
2013-03-25 23:51:00,34.6,26.5,29.74,WSW,257,1.0,5.0,72,0.00,,CLR,0.55,0.00,VWS V14.01,2013-03-26 03:51:00,
2013-03-25 23:56:00,34.5,26.4,29.74,NW,316,0.0,3.0,72,0.00,,CLR,0.55,0.00,VWS V14.01,2013-03-26 03:56:00,